Weather in Oryahovo

Bulgaria     43°44′05″N   23°57′41″E
temp.,
°C
wind,
m/s
gust,
m/s
humid.,
%
clouds,
%
prec.,
mm/h
press.,
hPa
HPBL,
m
13 june, sun
sun1300:00+17w228217 0.3 101427
03:00+16wsw33865 0.3 101460
06:00+15wsw3382100 0.0 101344
09:00+20w51266100 0.0 1012556
12:00+19w71480100 0.4 1012950
15:00+25wnw1114495 0.7 10112196
18:00+23wnw9134580 0.0 10122056
21:00+19wnw7145258 0.0 1014646
14 june, mon
mon1400:00+15nw347132 0.2 101681
03:00+15wnw357498 0.3 1015134
06:00+11w35875 0.0 101595
09:00+16wnw56635 0.0 1015629
12:00+20nnw564699 0.0 10151594
15:00+21n2444100 0.0 10141895
18:00+15s237993 1.3 101463
21:00+14wsw358622 2.2 1015100
15 june, tue
tue1500:00+12w3391100 0.1 101746
03:00+11wnw228875 0.1 101623
06:00+12wnw358957 0.0 1017115
09:00+15wnw467483 0.0 1018407
12:00+20wnw565199 0.0 10161261
15:00+22wnw4643100 0.0 10151737
18:00+24wnw5744100 0.0 10131925
21:00+19w512580 0.0 1012285
16 june, wed
wed1600:00+18w6136281 0.0 1014383
03:00+15w4975100 0.0 1014201
06:00+14w37855 0.0 1014142
09:00+19wnw46705 0.0 1015442
12:00+24wnw44535 0.0 10151139
15:00+27wnw33445 0.0 10141761
18:00+26w66478 0.0 1014948
21:00+22wsw486230 0.0 1014156
17 june, thu
thu1700:00+19wsw36666 0.0 1015102
03:00+17wsw227340 0.0 101624
06:00+15wsw33785 0.0 101637
09:00+20wnw35725 0.1 1017443
12:00+25wnw44595 0.0 10171087
15:00+28wnw224710 0.0 10151959
18:00+29w114186 0.1 10151955
21:00+23sw3461100 0.1 101573